N1JFY Weather Reports


Display with metric or nautical units.
time (UTC)temp
F
wind
direction
speed
MPH
gust
MPH
rain 1hr
in
rain 24hr
in
rain mn
in
humidity
%
barometer
mb
20260904143047 63 0.0 0.0 0.00 0.28 0.01 93 1007.4
20260904141543 62 0.0 0.0 0.00 0.28 0.01 95 1007.5
20260904140038 61 0.0 0.0 0.00 0.28 0.01 96 1007.5
20260904134535 61 0.0 0.0 0.00 0.33 0.01 97 1007.6
20260904133030 61 0.0 0.0 0.00 0.33 0.01 97 1007.7
20260904131525 60 0.0 0.0 0.00 0.33 0.01 97 1007.7
20260904130021 60 0.0 0.0 0.00 0.33 0.01 98 1007.7
20260904124515 60 0.0 0.0 0.00 0.34 0.01 98 1007.6
20260904123014 60 0.0 0.0 0.00 0.34 0.01 98 1007.7
20260904121510 60 0.0 0.0 0.00 0.34 0.01 97 1007.7
20260904120003 59 0.0 0.0 0.00 0.34 0.01 98 1007.6
20260904114559 59 0.0 0.0 0.00 0.35 0.01 98 1007.5
20260904113056 59 0.0 0.0 0.00 0.35 0.01 97 1007.6
20260904111550 59 0.0 0.0 0.00 0.35 0.01 97 1007.6
20260904110045 58 0.0 0.0 0.00 0.35 0.01 97 1007.7
20260904104543 58 0.0 0.0 0.00 0.37 0.01 97 1007.6
20260904103049 58 0.0 0.0 0.00 0.37 0.01 97 1007.7
20260904101535 58 0.0 0.0 0.00 0.37 0.01 97 1007.7
20260904100028 58 0.0 0.0 0.00 0.37 0.01 97 1007.6
20260904094524 58 0.0 0.0 0.00 0.41 0.01 97 1007.7
20260904093020 58 0.0 0.0 0.00 0.41 0.01 97 1007.7
20260904091515 58 0.0 0.0 0.00 0.41 0.01 97 1007.8
20260904090012 58 0.0 0.0 0.00 0.41 0.01 97 1007.9
20260904084508 58 0.0 0.0 0.01 0.41 0.01 97 1007.8
20260904083004 59 0.0 0.0 0.01 0.41 0.01 97 1007.9
20260904081558 59 0.0 0.0 0.01 0.41 0.01 97 1008.1
20260904080053 59 0.0 0.0 0.01 0.41 0.01 97 1008.0
20260904074603 59 0.0 0.0 0.00 0.40 0.00 97 1008.1
20260904073045 59 0.0 0.0 0.00 0.40 0.00 97 1008.2
20260904071541 59 0.0 0.0 0.00 0.40 0.00 97 1008.1
20260904070036 59 0.0 0.0 0.00 0.40 0.00 97 1008.2
20260904064536 59 0.0 0.0 0.00 0.40 0.00 97 1008.3
20260904063027 59 0.0 0.0 0.00 0.40 0.00 97 1008.4
20260904061530 59 0.0 0.0 0.00 0.40 0.00 97 1008.5
20260904060024 59 0.0 0.0 0.00 0.40 0.00 97 1008.6
20260904054516 59 0.0 0.0 0.00 0.40 0.00 97 1008.7
20260904053017 59 0.0 0.0 0.00 0.40 0.00 97 1009.0
20260904051506 59 0.0 0.0 0.00 0.40 0.00 96 1009.2
20260904050006 59 0.0 0.0 0.00 0.40 0.00 96 1009.6
20260904044606 59 0.0 0.0 0.00 0.40 0.00 96 1009.6
20260904043055 59 0.0 0.0 0.00 0.40 0.00 96 1009.9
20260904041551 59 0.0 0.0 0.00 0.40 0.00 96 1009.8
20260904040053 59 0.0 0.0 0.00 0.40 0.00 96 1010.1
20260904034537 59 0.0 0.0 0.00 0.40 0.40 96 1010.1
20260904033035 59 0.0 0.0 0.00 0.40 0.40 96 1010.2
20260904031531 59 0.0 0.0 0.00 0.40 0.40 96 1010.3
20260904030024 59 0.0 0.0 0.00 0.40 0.40 96 1010.3
20260904024522 60 0.0 0.0 0.00 0.40 0.40 96 1010.5
20260904023016 60 0.0 0.0 0.00 0.40 0.40 95 1010.7
20260904021516 60 0.0 0.0 0.00 0.40 0.40 95 1010.8
20260904020006 60 0.0 0.0 0.00 0.40 0.40 95 1011.0
20260904014503 60 0.0 0.0 0.00 0.40 0.40 95 1011.1
20260904013058 60 0.0 0.0 0.00 0.40 0.40 95 1011.0
20260904011604 60 0.0 0.0 0.00 0.40 0.40 95 1011.1
20260904010100 60 0.0 0.0 0.00 0.40 0.40 96 1011.0
20260904004549 60 0.0 0.0 0.00 0.40 0.40 96 1011.2
20260904003041 60 0.0 0.0 0.00 0.40 0.40 96 1011.2
20260904001536 60 0.0 0.0 0.00 0.40 0.40 96 1011.3
20260904000032 60 0.0 0.0 0.01 0.40 0.40 96 1011.1
20260903234528 60 0.0 0.0 0.02 0.40 0.40 96 1011.1
20260903233024 60 0.0 0.0 0.03 0.40 0.40 96 1011.2
20260903231519 60 0.0 0.0 0.04 0.40 0.40 96 1011.1
20260903230015 60 0.0 0.0 0.03 0.39 0.39 96 1011.2
20260903224510 60 0.0 0.0 0.03 0.38 0.38 96 1011.3
20260903223005 60 0.0 0.0 0.02 0.37 0.37 95 1011.5
20260903221502 60 0.0 0.0 0.02 0.36 0.36 95 1011.5
20260903220123 60 0.0 0.0 0.03 0.36 0.36 95 1011.4
20260903214552 60 0.0 0.0 0.02 0.35 0.35 95 1011.5
20260903213049 60 0.0 0.0 0.02 0.35 0.35 95 1011.7
20260903211547 60 0.0 0.0 0.01 0.34 0.34 95 1011.7
20260903210040 60 0.0 0.0 0.00 0.33 0.33 95 1011.8
20260903204535 60 0.0 0.0 0.00 0.33 0.33 95 1011.8
20260903203032 61 0.0 0.0 0.00 0.33 0.33 95 1011.9
20260903201528 60 0.0 0.0 0.00 0.33 0.33 95 1012.1
20260903200022 60 0.0 0.0 0.01 0.33 0.33 95 1012.0
20260903194517 60 0.0 0.0 0.01 0.33 0.33 95 1012.2
20260903193013 60 0.0 0.0 0.01 0.33 0.33 94 1012.5
20260903191509 60 0.0 0.0 0.01 0.33 0.33 95 1012.6
20260903190004 60 0.0 0.0 0.00 0.32 0.32 94 1012.7
20260903184603 60 0.0 0.0 0.00 0.32 0.32 94 1012.8
20260903183057 60 0.0 0.0 0.02 0.32 0.32 94 1012.9
20260903181551 60 0.0 0.0 0.03 0.32 0.32 94 1013.1
20260903180048 60 0.0 0.0 0.03 0.32 0.32 94 1013.4
20260903174542 60 0.0 0.0 0.04 0.32 0.32 94 1013.5
20260903173038 60 0.0 0.0 0.04 0.30 0.30 94 1013.6
20260903171543 60 0.0 0.0 0.04 0.28 0.28 94 1013.6
20260903170039 60 0.0 0.0 0.04 0.28 0.28 94 1013.8
20260903164525 60 0.0 0.0 0.05 0.28 0.28 94 1013.9
20260903163024 60 0.0 0.0 0.04 0.26 0.26 94 1014.1
20260903161516 60 0.0 0.0 0.05 0.25 0.25 94 1014.2
20260903160012 59 0.0 0.0 0.06 0.25 0.25 94 1014.4
20260903154507 59 0.0 0.0 0.05 0.23 0.23 94 1014.6
20260903153003 59 0.0 0.0 0.06 0.22 0.22 94 1014.7
20260903151559 59 0.0 0.0 0.05 0.20 0.20 94 1014.8
20260903150108 59 0.0 0.0 0.06 0.19 0.19 94 1015.1
20260903144550 59 0.0 0.0 0.06 0.18 0.18 94 1015.1